Regional Weather Roundup
Issued by NWS Jackson, KY

Home | Current Version | Previous Version | Graphics & Text | Print | Product List | Glossary On
Versions: 1 2 3 4 5 6 7 8 9 10 11 12 13 14 15 16 17 18 19 20 21 22 23 24 25 26 27 28 29 30 31 32 33 34 35 36 37 38 39 40 41 42 43 44 45 46 47 48 49 50
000
ASUS43 KJKL 262210
RWRJKL

EAST KENTUCKY HOURLY WEATHER ROUNDUP
NATIONAL WEATHER SERVICE JACKSON KY
500 PM EST THU FEB 26 2015

NOTE: "FAIR" INDICATES FEW OR NO CLOUDS BELOW 12,000 FEET WITH
NO SIGNIFICANT WEATHER AND/OR OBSTRUCTIONS TO VISIBILITY.

* THESE REPORTS ARE NOT UNDER NWS QUALITY CONTROL AND MAY NOT
  REPORT WEATHER SUCH AS PRECIPITATION AND FOG.

KYZ079-080-083-085-087-088-110-112-115-119-120-262300
...EASTERN KENTUCKY...

CITY           SKY/WX    TMP DP  RH WIND       PRES   REMARKS
JACKSON        MOSUNNY   37  17  44 NW10      30.00R WCI  30
LONDON         MOSUNNY   38  16  40 NW8       30.03R WCI  32
SOMERSET*      PTSUNNY   37  19  48 NW6       30.07R WCI  33
MONTICELLO*    MOSUNNY   38  21  50 NW8       30.09R WCI  32
MIDDLESBORO*   CLOUDY    37  25  62 NW5       30.02R WCI  34
HAZARD APT*    CLEAR     39  19  45 NW8       30.00R WCI  34
BLACK MTN*       N/A     25  21  86 VRB2        N/A
PIKEVILLE APT* CLOUDY    37  19  48 N7        29.97R WCI  32
BIG SANDY*     CLOUDY    40  19  44 CALM      29.98R
MOREHEAD APT*  CLOUDY    27  14  59 NW13      30.08R WCI  16
$$

KYZ035-036-041-042-044-050-067-078-099-262300
...CENTRAL KENTUCKY...

CITY           SKY/WX    TMP DP  RH WIND       PRES   REMARKS
MT STERLING*   CLOUDY    32  18  55 N6        30.08R WCI  26
FLEMING/MASON*   N/A    N/A N/A N/A MISG        N/A
DANVILLE*      CLOUDY    32  19  59 N10       30.08R WCI  24
RICHMOND*      PTSUNNY   32  18  55 NW8       30.06R WCI  25
LEXINGTON      CLOUDY    30  17  58 NW12      30.08R WCI  20
FRANKFORT      CLOUDY    30  15  53 NW6       30.09R WCI  24
$$

KYZ091>093-OHZ055-061-077-WVZ005-015-034-035-042-262300
...SOUTHERN OHIO/WEST VIRGINIA...

CITY           SKY/WX    TMP DP  RH WIND       PRES   REMARKS
COVINGTON      LGT SNOW  21  12  68 N12       30.13R WCI   9
COLUMBUS       MOSUNNY   18   6  59 NW14      30.10R WCI   4
DAYTON         CLOUDY    16   7  67 N12       30.16R WCI   3
WILMINGTON     CLOUDY    17   8  67 N9        30.11R WCI   6
HUNTINGTON     MOSUNNY   32  16  51 NW9       30.02R WCI  24
CHARLESTON     MOSUNNY   36  15  42 N10       29.98R WCI  28
PINEVILLE*     CLOUDY    34  29  82 MISG      30.01R
BECKLEY        CLOUDY    29  22  75 W6        29.91R WCI  23
BLUEFIELD      CLOUDY    30  24  78 W8        29.91R WCI  22
$$

VAZ002-007-008-TNZ017-027-036-066-071-262300
...SOUTHWEST VIRGINIA/EAST TENNESSEE...

CITY           SKY/WX    TMP DP  RH WIND       PRES   REMARKS
WISE*          CLOUDY    32  23  69 W7        29.95R WCI  26
JONESVILLE*    CLOUDY    36  25  64 W3        30.02R
ABINGDON*      CLOUDY    35  28  75 NW3       29.95R
BRISTOL        CLOUDY    35  30  82 S7        29.99R WCI  29
KNOXVILLE      CLOUDY    35  31  85 SW7       30.03R WCI  29
OAK RIDGE      CLOUDY    40  28  62 S3        30.04R
CROSSVILLE     PTSUNNY   37  23  56 NW7       30.01R WCI  32
NASHVILLE      CLOUDY    39  24  55 NW13      30.11R WCI  31
$$

...KEY TO REMARKS...
VSB - VISIBILITY IN MILES
WCI - WIND CHILL INDEX
HX  - HEAT INDEX

$$



USA.gov is the U.S. government's official web portal to all federal, state and local government web resources and services.